Monticello, KY

8:05 PM EDT on September 20, 2017 (GMT -0400)
Wayne County

Weather History for KEKQ - June, 2012

Change the Weather History Date:

Friday, June 22, 2012

  Actual Average Record
Temperature  
Mean Temperature 78 °F -  
Max Temperature 90 °F 83 °F 96 °F (1964)
Min Temperature 61 °F 62 °F 43 °F (1992)
Cooling Degree Days 13    
Growing Degree Days 28 (Base 50)    
Moisture  
Dew Point 67 °F    
Average Humidity 71    
Maximum Humidity 100    
Minimum Humidity 43    
Precipitation  
Precipitation 0.00 in - - ()
Sea Level Pressure  
Sea Level Pressure 29.96 in    
Wind  
Wind Speed 2 mph (NNW)    
Max Wind Speed 13 mph    
Max Gust Speed -    
Visibility 9 miles    
Events      
Averages and records for this station are not official NWS values.
T = Trace of Precipitation, MM = Missing Value Source: NWS Daily Summary

Daily Weather History Graph

Daily Weather History Graph

Search for Another Location

Airport or City:

Trip Planner

Search our weather history database for the weather conditions in past years. The results will help you decide how hot, cold, wet, or windy it might be!

Date:

Astronomy

Jun. 22, 2012 Rise Set
Actual Time 5:20 AM CDT 8:02 PM CDT
Civil Twilight 4:50 AM CDT 8:33 PM CDT
Nautical Twilight 4:11 AM CDT 9:11 PM CDT
Astronomical Twilight 3:28 AM CDT 9:54 PM CDT
Moon 8:15 AM CDT (6/22) 10:03 PM CDT (6/22)
Length of Visible Light 15h 42m
Length of Day
14h 41m
Waxing Crescent, 9% of the Moon is Illuminated
Jun 22
Waxing Crescent
Jun 26
First Quarter
Jul 3
Full
Jul 10
Last Quarter
Jul 18
New

Hourly Weather History & Observations

Time (CDT) Temp. Heat Index Dew Point Humidity Pressure Visibility Wind Dir Wind Speed Gust Speed Precip Events Conditions
12:56 AM 70.0 °F - 70.0 °F 100% 29.98 in 6.0 mi Calm Calm - N/A   Clear
1:56 AM 68.9 °F - 68.9 °F 100% 29.97 in 5.0 mi Calm Calm - N/A   Scattered Clouds
2:56 AM 70.0 °F - 70.0 °F 100% 29.96 in 7.0 mi Calm Calm - N/A   Partly Cloudy
3:56 AM 68.9 °F - 68.9 °F 100% 29.96 in 7.0 mi Calm Calm - N/A   Partly Cloudy
4:56 AM 68.0 °F - 68.0 °F 100% 29.96 in 4.0 mi Calm Calm - N/A   Clear
5:56 AM 68.9 °F - 68.9 °F 100% 29.98 in 5.0 mi Calm Calm - N/A   Scattered Clouds
6:56 AM 72.0 °F - 70.9 °F 96% 29.98 in 9.0 mi Calm Calm - N/A   Clear
7:56 AM 77.9 °F - 68.9 °F 74% 29.99 in 10.0 mi Calm Calm - N/A   Clear
8:56 AM 81.0 °F 83.8 °F 68.0 °F 65% 29.99 in 10.0 mi Calm Calm - N/A   Clear
9:56 AM 83.8 °F 87.5 °F 68.9 °F 61% 29.98 in 10.0 mi Calm Calm - N/A   Clear
10:56 AM 86.9 °F 91.0 °F 68.9 °F 55% 29.98 in 10.0 mi Variable 5.8 mph - N/A   Partly Cloudy
11:56 AM 88.0 °F 90.3 °F 65.8 °F 48% 29.97 in 10.0 mi Variable 5.8 mph - N/A   Scattered Clouds
12:56 PM 88.9 °F 90.7 °F 64.9 °F 45% 29.96 in 10.0 mi WNW 6.9 mph - N/A   Partly Cloudy
1:56 PM 90.9 °F 93.1 °F 65.8 °F 43% 29.94 in 10.0 mi NNW 10.4 mph - N/A   Clear
2:56 PM 90.0 °F 92.4 °F 65.8 °F 45% 29.92 in 10.0 mi NNW 9.2 mph - N/A   Clear
3:56 PM 90.0 °F 92.4 °F 65.8 °F 45% 29.91 in 10.0 mi NNW 9.2 mph - N/A   Scattered Clouds
4:56 PM 90.0 °F 93.6 °F 68.0 °F 48% 29.91 in 10.0 mi North 8.1 mph - N/A   Partly Cloudy
5:56 PM 86.9 °F 88.9 °F 65.8 °F 49% 29.91 in 10.0 mi North 12.7 mph - N/A   Clear
6:56 PM 84.9 °F 85.9 °F 63.0 °F 48% 29.92 in 10.0 mi NNW 9.2 mph - N/A   Clear
8:56 PM 72.9 °F - 61.0 °F 66% 29.96 in 10.0 mi Calm Calm - N/A   Clear
9:56 PM 66.9 °F - 61.9 °F 84% 29.97 in 10.0 mi Calm Calm - N/A   Clear
11:56 PM 61.9 °F - 61.0 °F 97% 29.99 in 10.0 mi Calm Calm - N/A   Clear